Le nostre stazioni meteo in Italia

Pubblicità
Il mio iltempo24.it
Siracusa, Italia (16464): Temperatura & dewpoint: 09.09.2019 21:00:00 - 15.09.2019 21:00:00 (CEST)Siracusa, Italia (16464): velocità del vento: 09.09.2019 21:00:00 - 15.09.2019 21:00:00 (CEST)Siracusa, Italia (16464): direzione del vento: 09.09.2019 21:00:00 - 15.09.2019 21:00:00 (CEST)Siracusa, Italia (16464): reduced air pressure: 09.09.2019 21:00:00 - 15.09.2019 21:00:00 (CEST)
Data & Tempo tt [°C] td [°C] ff [km/h] ff [kn] dd ppp [hPa]
15.09.2019 21:00:00 - - - - - -
15.09.2019 20:00:00 26,2 19,5 11 6 SSO 1021,0
15.09.2019 19:00:00 26,5 20,3 13 7 SSO 1021,0
15.09.2019 18:00:00 27,5 19,5 15 8 SSO 1021,4
15.09.2019 17:00:00 27,8 18,7 15 8 SO 1021,5
15.09.2019 16:00:00 28,1 18,4 15 8 SO 1022,0
15.09.2019 15:00:00 27,9 16,1 8 4 SO 1022,5
15.09.2019 14:00:00 27,6 19,1 8 4 O 1022,9
15.09.2019 13:00:00 26,9 19,2 11 6 ONO 1023,2
15.09.2019 12:00:00 26,9 18,4 11 6 ONO 1023,6
15.09.2019 11:00:00 27,3 18,8 8 4 O 1023,9
15.09.2019 10:00:00 26,7 19,3 2 1 OSO 1023,8
15.09.2019 09:00:00 23,0 16,7 2 1 SO 1024,0
15.09.2019 08:00:00 19,1 12,8 4 2 SO 1023,5
15.09.2019 07:00:00 17,5 11,0 4 2 SO 1022,9
15.09.2019 06:00:00 17,7 11,0 4 2 SO 1022,7
15.09.2019 05:00:00 18,2 11,0 2 1 SO 1022,6
15.09.2019 04:00:00 18,6 11,6 2 1 SO 1022,7
15.09.2019 03:00:00 18,6 11,6 4 2 SO 1022,7
15.09.2019 02:00:00 19,3 12,3 2 1 SO 1023,1
15.09.2019 01:00:00 19,7 12,7 4 2 SO 1023,4
15.09.2019 00:00:00 20,4 13,3 4 2 SO 1023,6
14.09.2019 23:00:00 21,5 14,1 4 2 SO 1023,7
14.09.2019 22:00:00 23,3 15,5 2 1 SO 1023,5
14.09.2019 21:00:00 25,4 15,9 2 1 SO 1023,2
14.09.2019 20:00:00 26,7 17,1 5 3 SO 1022,7
14.09.2019 19:00:00 27,6 16,8 8 4 SO 1022,5
14.09.2019 18:00:00 28,3 14,8 5 3 O 1022,5
14.09.2019 17:00:00 28,2 15,1 5 3 O 1022,5
14.09.2019 16:00:00 28,6 15,8 9 5 ONO 1022,9
14.09.2019 15:00:00 28,9 12,3 8 4 O 1023,3
14.09.2019 14:00:00 28,7 12,6 11 6 O 1023,9
14.09.2019 13:00:00 28,8 12,3 9 5 O 1024,0
14.09.2019 12:00:00 28,2 16,1 8 4 ONO 1024,3
14.09.2019 11:00:00 27,6 16,8 11 6 ONO 1024,2
14.09.2019 10:00:00 26,5 18,3 11 6 O 1024,0
14.09.2019 09:00:00 25,3 19,1 9 5 ONO 1024,2
14.09.2019 08:00:00 20,6 16,6 4 2 SSO 1023,9
14.09.2019 07:00:00 19,8 15,8 4 2 SSO 1023,6
14.09.2019 06:00:00 20,1 15,9 4 2 S 1023,3
14.09.2019 05:00:00 20,4 16,0 4 2 S 1023,4
14.09.2019 04:00:00 20,6 16,1 2 1 SSO 1023,5
14.09.2019 03:00:00 21,3 16,4 4 2 S 1023,9
14.09.2019 02:00:00 21,7 16,8 4 2 S 1024,4
14.09.2019 01:00:00 22,2 17,1 4 2 S 1024,8
14.09.2019 00:00:00 22,7 16,9 5 3 SSO 1024,9
13.09.2019 23:00:00 24,3 17,7 5 3 SO 1025,1
13.09.2019 22:00:00 25,5 18,6 2 1 SO 1024,9
13.09.2019 21:00:00 26,4 19,0 5 3 SO 1024,5
13.09.2019 20:00:00 27,0 19,0 8 4 SO 1023,9
13.09.2019 19:00:00 27,5 18,4 5 3 SO 1023,7
13.09.2019 18:00:00 28,0 17,8 9 5 SSO 1023,6
13.09.2019 17:00:00 28,2 17,7 8 4 ONO 1023,4
13.09.2019 16:00:00 28,9 16,7 8 4 O 1023,5
13.09.2019 15:00:00 29,1 19,4 5 3 OSO 1023,6
13.09.2019 14:00:00 28,5 21,2 15 8 O 1024,0
13.09.2019 13:00:00 28,4 19,6 18 10 ONO 1024,1
13.09.2019 12:00:00 27,6 18,3 15 8 O 1024,5
13.09.2019 11:00:00 27,4 18,1 13 7 O 1024,7
13.09.2019 10:00:00 26,6 17,9 13 7 ONO 1024,7
13.09.2019 09:00:00 23,8 20,1 2 1 SO 1024,5
13.09.2019 08:00:00 20,6 17,3 4 2 SO 1024,4
13.09.2019 07:00:00 20,0 16,6 4 2 SSO 1024,2
13.09.2019 06:00:00 20,5 17,1 4 2 S 1023,8
13.09.2019 05:00:00 20,7 17,1 5 3 SSO 1023,7
13.09.2019 04:00:00 21,5 17,4 4 2 SSO 1023,7
13.09.2019 03:00:00 22,2 17,7 4 2 SO 1023,8
13.09.2019 02:00:00 23,6 19,5 4 2 NO 1024,3
13.09.2019 01:00:00 22,8 18,3 5 3 SSO 1024,3
13.09.2019 00:00:00 23,7 18,9 4 2 SO 1024,5
12.09.2019 23:00:00 26,3 20,6 4 2 O 1024,8
12.09.2019 22:00:00 26,7 20,7 4 2 O 1024,7
12.09.2019 21:00:00 26,1 19,9 2 1 SSO 1024,6
12.09.2019 20:00:00 26,7 20,0 2 1 SSO 1024,2
12.09.2019 19:00:00 27,2 20,2 5 3 SO 1023,6
12.09.2019 18:00:00 27,6 19,6 4 2 ONO 1023,4
12.09.2019 17:00:00 27,7 20,5 8 4 O 1023,3
12.09.2019 16:00:00 28,2 21,2 8 4 OSO 1023,6
12.09.2019 15:00:00 27,5 20,8 11 6 ONO 1023,8
12.09.2019 14:00:00 27,4 20,7 11 6 ONO 1024,0
12.09.2019 13:00:00 27,1 20,1 13 7 O 1024,2
12.09.2019 12:00:00 27,0 20,0 11 6 O 1024,3
12.09.2019 11:00:00 26,9 20,7 11 6 O 1024,3
12.09.2019 10:00:00 26,2 20,5 13 7 ONO 1023,9
12.09.2019 09:00:00 25,2 20,8 13 7 ONO 1023,4
12.09.2019 08:00:00 22,2 18,5 4 2 SO 1023,3
12.09.2019 07:00:00 23,2 19,9 8 4 ONO 1022,4
12.09.2019 06:00:00 22,8 20,3 4 2 NO 1021,7
12.09.2019 05:00:00 21,6 19,3 4 2 O 1021,7
12.09.2019 04:00:00 21,3 18,6 4 2 SSO 1021,4
12.09.2019 03:00:00 21,6 18,3 4 2 S 1021,2
12.09.2019 02:00:00 22,5 18,0 2 1 O 1021,3
12.09.2019 01:00:00 22,0 18,5 4 2 NNO 1020,8
12.09.2019 00:00:00 22,2 18,3 4 2 NO 1020,7
11.09.2019 23:00:00 23,1 18,4 4 2 NO 1020,3
11.09.2019 22:00:00 25,2 19,5 2 1 N 1019,9
11.09.2019 21:00:00 25,6 20,1 5 3 NNO 1019,4
11.09.2019 20:00:00 25,8 20,3 4 2 NNO 1019,1
11.09.2019 19:00:00 25,9 20,2 8 4 NNO 1018,6
11.09.2019 18:00:00 26,4 20,0 9 5 NO 1018,5
11.09.2019 17:00:00 26,6 20,6 11 6 NO 1018,0
11.09.2019 16:00:00 26,9 20,4 11 6 NO 1017,7
11.09.2019 15:00:00 26,8 21,0 13 7 NNO 1017,3
11.09.2019 14:00:00 26,5 21,2 11 6 NNO 1017,3
11.09.2019 13:00:00 25,3 21,1 13 7 NNO 1017,0
11.09.2019 12:00:00 23,9 21,0 8 4 N 1016,7
11.09.2019 11:00:00 21,9 19,6 13 7 N 1016,5
11.09.2019 10:00:00 20,8 17,7 13 7 NNO 1016,4
11.09.2019 09:00:00 23,3 20,0 4 2 NNO 1015,6
11.09.2019 08:00:00 23,2 19,7 11 6 NNO 1014,8
11.09.2019 07:00:00 22,6 19,1 9 5 NO 1014,1
11.09.2019 06:00:00 22,7 19,2 9 5 NO 1013,9
11.09.2019 05:00:00 22,5 19,0 16 9 NO 1012,9
11.09.2019 04:00:00 21,8 17,7 5 3 O 1013,6
11.09.2019 03:00:00 22,5 19,0 8 4 ONO 1013,2
11.09.2019 02:00:00 22,1 18,8 13 7 NNO 1013,6
11.09.2019 01:00:00 21,1 18,2 5 3 NO 1014,4
11.09.2019 00:00:00 21,4 18,7 2 1 O 1013,8
10.09.2019 23:00:00 20,9 18,6 9 5 ONO 1013,5
10.09.2019 22:00:00 20,2 17,5 2 1 SSO 1013,9
10.09.2019 21:00:00 20,2 17,3 24 13 NO 1013,7
10.09.2019 20:00:00 24,0 18,1 16 9 NO 1013,1
10.09.2019 19:00:00 25,6 20,6 13 7 SSE 1011,2
10.09.2019 18:00:00 26,0 21,2 13 7 SE 1011,3
10.09.2019 17:00:00 26,3 20,6 0 0 N 1011,8
10.09.2019 16:00:00 26,8 21,3 - - - -
10.09.2019 15:00:00 - - - - - -
10.09.2019 14:00:00 26,2 21,1 - - - -
10.09.2019 13:00:00 26,3 20,3 - - - -
10.09.2019 12:00:00 25,7 19,8 - - - -
10.09.2019 11:00:00 25,4 18,5 - - - -
10.09.2019 10:00:00 24,9 19,4 - - - -
10.09.2019 09:00:00 25,3 18,2 - - - -
10.09.2019 08:00:00 25,2 18,1 - - - -
10.09.2019 07:00:00 24,8 18,2 - - - -
10.09.2019 06:00:00 25,0 18,4 - - - -
10.09.2019 05:00:00 25,0 18,4 - - - -
10.09.2019 04:00:00 - - - - - -
10.09.2019 03:00:00 25,3 18,9 - - - -
10.09.2019 02:00:00 25,6 19,2 - - - -
10.09.2019 01:00:00 25,6 19,7 - - - -
10.09.2019 00:00:00 25,9 19,2 - - - -
09.09.2019 23:00:00 26,2 19,5 - - - -
09.09.2019 22:00:00 26,5 19,8 - - - -
09.09.2019 21:00:00 26,8 19,9 - - - -

tt = Temperatura
td = dewpoint
ff = velocità del vento
dd = direzione del vento
ppp = reduced air pressure

Stazioni seguenti

WeatherPro
AMSI
MeteoEarth